[[{"header":{"parameterUnit":"m.s-1","parameterCategory":1,"la1":30.2991,"la2":30.254,"lo1":-89.0895,"lo2":-89.0444,"dx":0.0017,"dy":0.0017,"nx":28,"ny":28,"refTime":"2023-01-23T03:00:00:Z","depth":0,"parameterNumber":2,"parameterNumberName":"U-component_of_WINDS"},"data":[0,0,0,0,0,0,0,0,0,0,0,0,0,0,0,0,0,0,0,0,0,0,0,0,0,0,0,0,0,0,0,0,0,0,0,0,0,0,0,0,0,0,0,0,0,0,0,0,0,0,0,0,0,0,0,0,0,0,-4.6719,-4.6719,0,-4.677,-4.6771,-4.6771,-4.6594,-4.6588,-4.6583,-4.6578,-4.6632,-4.6638,-4.6645,0,0,0,0,0,0,0,0,0,0,0,0,0,-4.6467,-4.6472,-4.6719,-4.6719,-4.672,-4.677,-4.6771,-4.6771,-4.6595,-4.6588,-4.6582,-4.6575,-4.663,-4.6637,-4.6645,0,0,0,0,0,0,0,0,0,0,0,0,0,-4.6553,-4.6474,-4.6718,-4.6638,-4.6631,-4.677,-4.6771,-4.6772,-4.6596,-4.6588,-4.658,-4.6572,-4.6627,-4.6637,-4.6646,-4.6866,0,0,-4.6676,-4.668,0,0,0,0,0,0,0,0,-4.6548,-4.6562,-4.6649,-4.6643,-4.6636,-4.6667,-4.6701,-4.6803,-4.6598,-4.6609,-4.6578,-4.6568,-4.665,-4.6657,-4.6685,-4.6868,-4.6871,-4.6676,-4.6682,-4.6686,-4.6689,0,0,0,0,0,0,0,-4.6543,-4.6559,-4.6739,-4.665,-4.6643,-4.6599,-4.6602,-4.672,-4.6674,-4.6608,-4.6595,-4.6603,-4.6645,-4.6676,-4.6685,-4.6872,-4.6676,-4.6685,-4.6691,-4.6694,-4.7236,-4.7244,0,0,0,0,0,0,-4.6547,-4.6555,-4.6737,-4.674,-4.6572,-4.661,-4.6613,-4.6665,-4.6672,-4.6666,-4.661,-4.6595,-4.6663,-4.6674,-4.6686,-4.6943,-4.6686,-4.6695,-4.6701,-4.7228,-4.7238,-4.7247,0,0,0,0,0,0,-4.6542,-4.6565,-4.6735,-4.6645,-4.6663,-4.6623,-4.6682,-4.6671,-4.6701,-4.6674,-4.6665,-4.665,-4.6657,-4.6672,-4.6822,-4.6942,-4.67,-4.6708,-4.7217,-4.7231,-4.7243,-4.7459,0,0,0,0,0,0,-4.6536,-4.6564,-4.6648,-4.6648,-4.6668,-4.6871,-4.669,-4.6677,-4.6718,-4.6699,-4.6709,-4.6703,-4.6652,-4.6809,-4.6832,-4.6951,-4.6716,-4.7206,-4.7223,-4.7239,-4.7441,-4.7478,-4.7509,0,0,0,0,0,-4.6528,-4.6707,-4.6653,-4.6676,-4.6772,-4.6879,-4.689,-4.6828,-4.6728,-4.6812,-4.6794,-4.6703,-4.6925,-4.6825,-4.685,-4.6974,-4.7199,-4.7219,-4.7237,-4.7426,-4.747,-4.7508,0,0,0,0,0,0,-4.6723,-4.6706,-4.6645,-4.6831,-4.6857,-4.6848,-4.6952,-4.6878,-4.6933,-4.6913,-4.6833,-4.6837,-4.7001,-4.7002,-4.6891,-4.7186,-4.7045,-4.707,-4.7179,-4.7222,-4.7255,-4.7252,-4.6724,0,0,0,0,0,-4.6788,-4.6876,-4.6856,-4.7021,-4.7038,-4.6993,-4.7037,-4.6986,-4.7011,-4.7022,-4.7015,-4.7043,-4.7118,-4.717,-4.7238,-4.744,-4.7439,-4.7537,-4.7571,-4.7599,-4.7622,-4.7727,-4.777,-4.7311,-4.7311,-4.731,0,0,-4.6923,-4.6924,-4.6985,-4.7061,-4.7075,-4.7168,-4.7004,-4.7109,-4.7177,-4.7038,-4.7178,-4.7175,-4.72,-4.7376,-4.7454,-4.7382,-4.7749,-4.7624,-4.7647,-4.7654,-4.7752,-4.7795,-4.7834,-4.7324,-4.7322,-4.732,0,0,-4.7215,-4.7226,-4.7364,-4.7382,-4.7406,-4.7374,-4.7408,-4.741,-4.7402,-4.7541,-4.7438,-4.7518,-4.765,-4.7672,-4.7701,-4.8,-4.7918,-4.8024,-4.8203,-4.8307,-4.8343,-4.8374,-4.8481,-4.852,-4.8047,-4.8048,-4.8048,0,-4.738,-4.7516,-4.7444,-4.7557,-4.7593,-4.7469,-4.7608,-4.7629,-4.7675,-4.7703,-4.7622,-4.7784,-4.7793,-4.7972,-4.8045,-4.8072,-4.8107,-4.8023,-4.8343,-4.8374,-4.8403,-4.8503,-4.8543,-4.806,-4.8059,-4.8058,-4.8056,0,-4.7716,-4.7812,-4.7921,-4.7967,-4.8015,-4.8141,-4.8088,-4.8145,-4.809,-4.8067,-4.821,-4.8216,-4.8282,-4.8321,-4.8268,-4.8493,-4.8447,-4.8357,-4.8213,-4.8461,-4.8553,-4.8591,-4.8079,-4.8074,-4.807,-4.8067,0,0,-4.8135,-4.8139,-4.818,-4.8199,-4.8216,-4.8288,-4.8408,-4.8472,-4.8522,-4.8558,-4.8655,-4.8769,-4.8685,-4.8717,-4.8666,-4.8757,-4.8993,-4.8654,-4.8653,-4.8717,-4.9239,-4.9308,-4.9353,-4.8938,-4.8945,-4.8951,-4.9237,0,-4.8422,-4.8626,-4.8565,-4.877,-4.8856,-4.874,-4.8843,-4.8865,-4.8847,-4.8917,-4.8896,-4.8978,-4.8861,-4.8879,-4.8964,-4.8946,-4.9097,-4.8925,-4.9028,-4.9033,-4.9025,-4.9402,-4.9475,-4.9744,-4.9273,-4.9279,-4.9283,0,-4.8785,-4.8834,-4.9048,-4.9048,-4.9082,-4.9177,-4.923,-4.9299,-4.9321,-4.9301,-4.9337,-4.9266,-4.9382,-4.9238,-4.9397,-4.9281,-4.9319,-4.9317,-4.9326,-4.9333,-4.9173,-4.9419,-4.9829,-4.987,-4.934,-4.9335,-4.9331,0,-4.9069,-4.9188,-4.933,-4.935,-4.9355,-4.9424,-4.9429,-4.9442,-4.9484,-4.9531,-4.9557,-4.9617,-4.965,-4.9698,-4.9645,-4.9545,-4.9812,-4.9664,-4.9798,-4.98,-4.986,-4.9857,-5.0282,-4.9886,-4.9885,-4.9884,-4.9883,0,-4.9396,-4.9531,-4.9457,-4.9546,-4.9693,-4.9621,-4.9769,-4.976,-4.9773,-4.9857,-4.976,-4.9841,-4.9766,-4.984,-4.9799,-4.9936,-4.9952,-4.9939,-4.9927,-4.9948,-4.995,-4.9972,-4.9952,-4.9895,-4.9893,-4.9891,-4.9889,0,-4.9738,-4.9694,-4.9842,-4.9834,-4.9835,-4.9944,-4.9936,-5.0017,-4.9991,-5.0098,-5.0119,-5.0079,-5.016,-5.0112,-5.0196,-5.0168,-5.0347,-5.0309,-5.034,-5.0329,-5.0467,-5.0454,-5.092,-5.0977,-5.0546,-5.055,-5.0553,0,-4.995,-5.0051,-5.0053,-5.0102,-5.0113,-5.0194,-5.0236,-5.0168,-5.0216,-5.0247,-5.0324,-5.0397,-5.0452,-5.0588,-5.0566,-5.0629,-5.0592,-5.0751,-5.0601,-5.0618,-5.0593,-5.0588,-5.0597,-5.0781,-5.0786,-5.079,-5.0794,0,-5.033,-5.0303,-5.0367,-5.0424,-5.0477,-5.0519,-5.0553,-5.0598,-5.053,-5.0589,-5.0671,-5.0714,-5.0798,-5.0872,-5.0925,-5.093,-5.0852,-5.0841,-5.0875,-5.0898,-5.0911,-5.0905,-5.0422,-5.0831,-5.0827,-5.0824,-5.0822,-5.0821,-5.0612,-5.0696,-5.0711,-5.0785,-5.0803,-5.0837,-5.0912,-5.0894,-5.0961,-5.1025,-5.098,-5.1078,-5.1095,-5.1158,-5.1173,-5.1247,-5.1183,-5.1233,-5.1245,-5.1259,-5.1277,-5.09,-5.1257,-5.1255,-5.1254,-5.1253,-5.1253,0,-5.0987,-5.099,-5.1059,-5.1109,-5.1168,-5.1087,-5.112,-5.1174,-5.1261,-5.1283,-5.1339,-5.1433,-5.1503,-5.1487,-5.155,-5.1613,-5.1578,-5.1632,-5.1626,-5.1628,-5.1332,-5.1295,-5.1659,-5.1659,-5.1658,-5.1658,-5.1658,-5.1658,-5.1188,-5.1326,-5.13,-5.1445,-5.1447,-5.1541,-5.1566,-5.1596,-5.1613,-5.1722,-5.178,-5.1768,-5.1775,-5.1838,-5.1899,-5.1892,-5.1919,-5.1986,-5.1967,-5.169,-5.1649,-5.1611,-5.1576,-5.1993,-5.1994,-5.2256,-5.2259,-5.2261]},{"header":{"parameterUnit":"m.s-1","parameterCategory":1,"la1":30.2991,"la2":30.254,"lo1":-89.0895,"lo2":-89.0444,"dx":0.0017,"dy":0.0017,"nx":28,"ny":28,"refTime":"2023-01-23T03:00:00:Z","depth":0,"parameterNumber":3,"parameterNumberName":"V-component_of_WINDS"},"data":[0,0,0,0,0,0,0,0,0,0,0,0,0,0,0,0,0,0,0,0,0,0,0,0,0,0,0,0,0,0,0,0,0,0,0,0,0,0,0,0,0,0,0,0,0,0,0,0,0,0,0,0,0,0,0,0,0,0,-2.5561,-2.5561,0,-2.5601,-2.5601,-2.5602,-2.5595,-2.5594,-2.5593,-2.5593,-2.5632,-2.5634,-2.5635,0,0,0,0,0,0,0,0,0,0,0,0,0,-2.5475,-2.5476,-2.5561,-2.5561,-2.5562,-2.5601,-2.5601,-2.5602,-2.5595,-2.5594,-2.5593,-2.5592,-2.5632,-2.5634,-2.5636,0,0,0,0,0,0,0,0,0,0,0,0,0,-2.5513,-2.5477,-2.5561,-2.5563,-2.5563,-2.5601,-2.5601,-2.5602,-2.5595,-2.5594,-2.5593,-2.5592,-2.5631,-2.5633,-2.5636,-2.5673,0,0,-2.5644,-2.5645,0,0,0,0,0,0,0,0,-2.5511,-2.5516,-2.5562,-2.5563,-2.5564,-2.5592,-2.5585,-2.5626,-2.5595,-2.5583,-2.5593,-2.5591,-2.5619,-2.5623,-2.5633,-2.5675,-2.5676,-2.5644,-2.5646,-2.5647,-2.5647,0,0,0,0,0,0,0,-2.5508,-2.5514,-2.5576,-2.5563,-2.5564,-2.5561,-2.5565,-2.5593,-2.5607,-2.5584,-2.5584,-2.5588,-2.562,-2.563,-2.5634,-2.5677,-2.5644,-2.5646,-2.5648,-2.5649,-2.5748,-2.5749,0,0,0,0,0,0,-2.5505,-2.5512,-2.5575,-2.5578,-2.5534,-2.5563,-2.5568,-2.5584,-2.5606,-2.5609,-2.5589,-2.5588,-2.5626,-2.5631,-2.5635,-2.5678,-2.5647,-2.5649,-2.565,-2.5747,-2.5749,-2.575,0,0,0,0,0,0,-2.5503,-2.5511,-2.5574,-2.5545,-2.5553,-2.5566,-2.5583,-2.5585,-2.5596,-2.561,-2.5612,-2.5598,-2.5626,-2.5631,-2.5663,-2.5679,-2.565,-2.5653,-2.5746,-2.5748,-2.5749,-2.5765,0,0,0,0,0,0,-2.5501,-2.551,-2.5525,-2.5545,-2.5554,-2.5602,-2.5585,-2.5587,-2.56,-2.5599,-2.5619,-2.5621,-2.5625,-2.5659,-2.5665,-2.5682,-2.5655,-2.5745,-2.5747,-2.5749,-2.5763,-2.5767,-2.577,0,0,0,0,0,-2.5498,-2.5529,-2.5526,-2.5534,-2.5574,-2.5603,-2.5608,-2.5613,-2.5602,-2.5616,-2.5625,-2.5621,-2.5676,-2.5662,-2.567,-2.5687,-2.5744,-2.5746,-2.5749,-2.5761,-2.5766,-2.577,0,0,0,0,0,0,-2.551,-2.5531,-2.5529,-2.5567,-2.5583,-2.5602,-2.562,-2.5618,-2.5637,-2.5635,-2.5639,-2.5644,-2.5675,-2.5685,-2.5669,-2.5723,-2.5708,-2.5712,-2.5716,-2.572,-2.5724,-2.5721,-2.5657,0,0,0,0,0,-2.5517,-2.554,-2.5557,-2.5589,-2.5597,-2.5607,-2.5621,-2.5622,-2.5639,-2.5646,-2.5657,-2.5673,-2.5694,-2.5708,-2.5728,-2.5764,-2.5767,-2.578,-2.5783,-2.5786,-2.5789,-2.5807,-2.5812,-2.5758,-2.5758,-2.5758,0,0,-2.5532,-2.5547,-2.5561,-2.5592,-2.5605,-2.5627,-2.5613,-2.5638,-2.5654,-2.565,-2.568,-2.5689,-2.5706,-2.574,-2.5755,-2.5748,-2.5805,-2.5789,-2.5792,-2.5793,-2.581,-2.5815,-2.582,-2.576,-2.5759,-2.5759,0,0,-2.5571,-2.5585,-2.5612,-2.5625,-2.5644,-2.565,-2.5656,-2.5675,-2.5681,-2.5711,-2.5707,-2.5726,-2.5763,-2.5775,-2.5786,-2.5826,-2.5822,-2.5833,-2.5851,-2.5868,-2.5873,-2.5876,-2.5889,-2.5894,-2.5836,-2.5836,-2.5836,0,-2.5587,-2.5621,-2.5626,-2.5651,-2.5663,-2.566,-2.5686,-2.5698,-2.5723,-2.5731,-2.5723,-2.5767,-2.5779,-2.5815,-2.5824,-2.5834,-2.584,-2.583,-2.5872,-2.5876,-2.5879,-2.5891,-2.5896,-2.5837,-2.5837,-2.5837,-2.5837,0,-2.5639,-2.5663,-2.5682,-2.5706,-2.5721,-2.5746,-2.5753,-2.5767,-2.5768,-2.5774,-2.5804,-2.5818,-2.584,-2.5848,-2.5849,-2.5883,-2.5878,-2.5871,-2.5856,-2.5885,-2.5897,-2.5901,-2.5839,-2.5838,-2.5838,-2.5838,0,0,-2.5687,-2.5712,-2.5719,-2.5728,-2.5748,-2.5766,-2.579,-2.5812,-2.5823,-2.584,-2.5859,-2.5889,-2.5882,-2.5895,-2.5897,-2.5912,-2.594,-2.5903,-2.5903,-2.5908,-2.5976,-2.598,-2.5986,-2.5938,-2.5939,-2.594,-2.5974,0,-2.5726,-2.577,-2.5773,-2.5812,-2.5832,-2.5828,-2.5849,-2.5863,-2.5869,-2.5887,-2.5894,-2.5914,-2.5904,-2.5911,-2.5926,-2.5934,-2.5954,-2.5931,-2.5954,-2.5955,-2.5949,-2.5992,-2.5997,-2.6029,-2.5979,-2.598,-2.598,0,-2.5778,-2.5796,-2.5836,-2.5851,-2.586,-2.5879,-2.5897,-2.5915,-2.593,-2.5933,-2.5946,-2.5945,-2.5968,-2.5953,-2.5984,-2.5969,-2.5978,-2.5983,-2.5984,-2.5986,-2.5969,-2.5993,-2.604,-2.6044,-2.5988,-2.5987,-2.5986,0,-2.5807,-2.5841,-2.5869,-2.5877,-2.5896,-2.5909,-2.5917,-2.5931,-2.5943,-2.5959,-2.5966,-2.5985,-2.5995,-2.6009,-2.6012,-2.6001,-2.6043,-2.6028,-2.6045,-2.6045,-2.6053,-2.6052,-2.61,-2.6061,-2.6061,-2.6061,-2.6061,0,-2.5849,-2.5874,-2.5882,-2.5899,-2.5925,-2.5928,-2.5954,-2.5962,-2.5974,-2.5991,-2.5989,-2.6005,-2.6009,-2.6026,-2.6029,-2.6053,-2.6058,-2.606,-2.606,-2.606,-2.6059,-2.6065,-2.6062,-2.6062,-2.6062,-2.6062,-2.6062,0,-2.5886,-2.5893,-2.5922,-2.5937,-2.5941,-2.596,-2.5972,-2.5988,-2.5993,-2.6015,-2.602,-2.6029,-2.6048,-2.6053,-2.6076,-2.6078,-2.6105,-2.6104,-2.61,-2.61,-2.6115,-2.6113,-2.6168,-2.6175,-2.6133,-2.6133,-2.6133,0,-2.5912,-2.5931,-2.5947,-2.5959,-2.5967,-2.5986,-2.5998,-2.6001,-2.6013,-2.603,-2.6043,-2.6062,-2.6078,-2.6108,-2.6116,-2.6133,-2.6131,-2.6149,-2.6133,-2.6131,-2.6129,-2.6128,-2.6128,-2.6151,-2.6152,-2.6152,-2.6153,0,-2.5958,-2.5959,-2.5977,-2.5994,-2.6008,-2.6023,-2.6036,-2.6045,-2.605,-2.6064,-2.6083,-2.6095,-2.6118,-2.6136,-2.6153,-2.616,-2.6157,-2.6157,-2.6162,-2.6161,-2.6157,-2.6158,-2.6107,-2.6156,-2.6156,-2.6155,-2.6155,-2.6155,-2.5989,-2.6004,-2.6017,-2.6036,-2.6046,-2.6059,-2.6073,-2.608,-2.6096,-2.6115,-2.6116,-2.6137,-2.6149,-2.6171,-2.6179,-2.6195,-2.6189,-2.6196,-2.6197,-2.6199,-2.6199,-2.6155,-2.6198,-2.6198,-2.6198,-2.6198,-2.6198,0,-2.6032,-2.604,-2.6057,-2.6076,-2.609,-2.6086,-2.61,-2.6112,-2.613,-2.6142,-2.6156,-2.6178,-2.6195,-2.6203,-2.6219,-2.623,-2.6229,-2.6234,-2.6233,-2.6234,-2.6204,-2.6198,-2.6235,-2.6235,-2.6235,-2.6235,-2.6235,-2.6235,-2.6057,-2.6082,-2.6085,-2.6114,-2.6122,-2.6142,-2.615,-2.616,-2.617,-2.6193,-2.6207,-2.6213,-2.6223,-2.624,-2.6254,-2.6256,-2.6262,-2.6268,-2.6269,-2.624,-2.6236,-2.6233,-2.6227,-2.6269,-2.6269,-2.6297,-2.6297,-2.6297]}]]